Location: Aldenham
(51.6667°N, 0.3500°W)
Time: 17:46:07
(UTC+00:00)

Cosmos 1400 Rocket - Pass Details

Date: 18 November 2025
Orbit: 476 x 514 km, 81.1° (Epoch: 09 December)

Event Time Altitude Azimuth Distance (km) Brightness Sun altitude
Rises 18:39:47 0° 200° (SSW) 2,617 6.6 -23.3°
Reaches altitude 10° 18:41:56 10° 204° (SSW) 1,732 5.6 -23.6°
Maximum altitude 18:45:42 61° 285° (WNW) 584 3.1 -24.2°
Enters shadow 18:45:48 60° 295° (WNW) 586 3.1 -24.2°
